Regional Weather Roundup
Issued by NWS

Home | Current Version | Previous Version | Text Only | Print | Product List | Glossary On
Versions: 1 2 3 4 5 6 7 8 9 10 11 12 13 14 15 16 17 18 19 20 21 22 23 24 25 26 27 28 29 30 31 32 33 34 35 36 37 38 39 40 41 42 43 44 45 46 47 48 49 50
000
ASUS44 KEWX 260711
RWRTX
SOUTH TEXAS REGIONAL WEATHER ROUNDUP
NATIONAL WEATHER SERVICE AUSTIN/SAN ANTONIO TX
200 AM CDT MON SEP 26 2016

NOTE: "FAIR" INDICATED FEW OR NO CLOUDS BELOW 12,000 FEET WITH NO
SIGNIFICANT WEATHER AND/OR OBSTRUCTIONS TO VISIBILITY.

* - THESE STATIONS ARE NOT NWS OR FAA STATIONS...AND ARE NOT SUBJECT
    TO NWS AND FAA QUALITY CONTROL.

TXZ171-172-183>190-260800-
TEXAS HILL COUNTRY AND EDWARDS PLATEAU

CITY           SKY/WX    TMP DP  RH WIND       PRES   REMARKS
JUNCTION       CLOUDY    68  65  90 N12       30.11S
*LLANO         CLOUDY    72  72 100 CALM      30.12S
BURNET         LGT RAIN  71  69  93 NE7       30.10F
*HORSESHOE BAY CLOUDY    72  70  95 CALM      30.09R
*KERRVILLE     LGT RAIN  72  70  95 CALM      30.09R
*FREDERICKSBRG CLOUDY    70  68  93 NE3       30.09S
*ROCKSPRINGS   HVY RAIN  68  66  94 NE3       30.13S
*BOERNE STAGE  CLOUDY    68  68 100 CALM      30.08R
*CASTROVILLE   LGT RAIN  72  72  99 E3        30.05R
HONDO          LGT RAIN  73  71  93 NE6       30.04R
*UVALDE        CLOUDY    71  70  96 CALM      30.05S
DEL RIO        RAIN      70  70 100 N6        30.04F FOG
LAUGHLIN AFB   HVY RAIN  71  69  95 N7        30.05S FOG
CARRIZO SPRGS  LGT RAIN  72  70  94 CALM      30.00S
*EAGLE PASS    NOT AVBL
$$

TXZ173-191>194-202-209-217>225-228-260800-
CENTRAL AND SOUTH CENTRAL TEXAS

CITY           SKY/WX    TMP DP  RH WIND       PRES   REMARKS
GEORGETOWN     CLOUDY    72  68  88 NE3       30.08R
AUSTIN/BERGSTM CLOUDY    74  73  97 N8        30.05S
AUSTIN/MABRY   CLOUDY    73  72  96 CALM      30.07S
*AUSTIN/EXEC   CLOUDY    77  77 100 N5        30.07S FOG
*LAGO VISTA    CLOUDY    71  70  96 NE7       30.09S FOG
SAN MARCOS     CLOUDY    72  72 100 NE8       30.07S
NEW BRAUNFELS  RAIN      72  71  97 NE15      30.03S FOG
RANDOLPH AFB   CLOUDY    72  72 100 N9        30.03F
PT SAN ANTONIO LGT RAIN  72  71  95 NE7       30.01S
SAN ANTONIO    LGT RAIN  72  70  93 CALM      30.05R
STINSON FIELD  LGT RAIN  73  71  93 NE6       30.01S
*PLEASANTON    LGT RAIN  73  72  96 CALM      30.02R
*LA GRANGE     MOCLDY    74  73  98 N3        30.02S
*GIDDINGS      CLOUDY    72  71  97 NE6       30.09R FOG
*GONZALES      CLOUDY    73  73 100 NE3       30.03R
$$

TXZ163>164-176>182-195>201-210>213-226-227-235-260800-
SOUTHEAST TEXAS

CITY           SKY/WX    TMP DP  RH WIND       PRES   REMARKS
COLLEGE STN    MOCLDY    73  72  96 CALM      30.05R
*BRYAN         MOCLDY    71  71 100 N3        30.06S
*CALDWELL      NOT AVBL
*CROCKETT      NOT AVBL
*BRENHAM       DRZL/FOG  74  74  99 CALM      30.04S VSB 1/4
HUNTSVILLE     CLOUDY    73  71  93 CALM      30.04S
CONROE         CLOUDY    72  70  93 CALM      30.03S
HOUSTON BUSH   CLOUDY    73  72  96 N3        30.02S
HOUSTON HOBBY  CLOUDY    75  72  90 NE3       30.00F
*HOUSTON SW AP CLOUDY    73  72  96 CALM      30.01F
PEARLAND       CLOUDY    77  73  87 CALM      30.02F
HOUSTON HOOKS  CLOUDY    73  72  96 CALM      30.02F
ELLINGTON FLD  MOCLDY    77  73  88 CALM      30.03S
SUGAR LAND     CLOUDY    73  70  90 NE3       30.01S
*HOUSTON EXEC    N/A     72  72 100 NE6       30.03S
*CLEVELAND MUN CLOUDY    73  71  96 CALM      30.04S FOG
*WHARTON       MOCLDY    73  72  97 NE5       30.01S
*COLUMBUS      FAIR      72  72 100 CALM      30.03S
*EAGLE LAKE    PTSUNNY   73  72  99 NE3       30.02S
$$

TXZ214>216-236>238-260800-
THE UPPER TEXAS COAST

CITY           SKY/WX    TMP DP  RH WIND       PRES   REMARKS
*ORANGE        CLEAR     73  73 100 CALM      30.03S
PORT ARTHUR    PTCLDY    74  72  93 CALM      30.01S
GALVESTON      CLOUDY    78  75  90 E5        30.02R
ANGLETON       CLOUDY    76  74  93 N3        30.00F
*BAY CITY      MOCLDY    74  74 100 CALM      30.00F FOG
PALACIOS       MOCLDY    76  73  91 E6        29.99F
$$

TXZ229>234-239>247-260800-
TEXAS COASTAL BEND AND RIO GRANDE PLAINS

CITY           SKY/WX    TMP DP  RH WIND       PRES   REMARKS
VICTORIA       MOCLDY    74  72  93 E6        30.00R
*BEEVILLE      DRIZZLE   74  74 100 S6        29.99F
ROCKPORT       CLOUDY    79  73  82 E21G28    29.97F
*PORT ARANSAS  TSTM      74  72  92 NE8G18    29.99R VSB 1
*PORT LAVACA   MOCLDY    75  73  96 CALM      30.00S
*INGLESIDE     TSTM      76  72  87 NE14G25   29.97S VSB 3/4
CORPUS CHRISTI TSTM      76  74  93 SW10      29.98R
CORPUS NAS     CLOUDY    80  75  84 NE7       29.96R THUNDER
*ROBSTOWN      TSTM      75  73  93 N7        30.01R
ALICE          CLOUDY    74  72  93 NE10      29.97S
KINGSVILLE NAS TSTM      72  72 100 W13       29.96F
COTULLA        LGT RAIN  74  71  91 CALM      30.01R
*FAITH RANCH     N/A    N/A N/A N/A MISG        N/A
LAREDO         CLOUDY    72  69  90 VRB3      29.99F
$$

TXZ248>255-260800-
DEEP SOUTH TEXAS

CITY           SKY/WX    TMP DP  RH WIND       PRES   REMARKS
BROWNSVILLE    CLOUDY    80  75  84 SW5       29.92F
PORT ISABEL    CLOUDY    82  76  81 S3        29.92F
*SOUTH PADRE     N/A     84  75  74 SE9       29.92F HX  92
HARLINGEN      CLOUDY    80  76  87 CALM      29.91F
*HEBBRONVILLE  LGT RAIN  71  69  94 N6        29.99F
MCALLEN        CLOUDY    86  75  69 NE3       29.93F HX  95
*WESLACO       CLOUDY    80  74  83 N3        29.92F
FALFURRIAS     CLOUDY    74  70  87 N8        29.96S
EDINBURG       CLOUDY    81  74  80 NW3       29.94F
*ZAPATA        LGT RAIN  72  72  99 CALM      29.97F
$$

TXZ213>215-236>238-242>244-246-247-251-254-255-260800-
CMAN STATIONS

STATION/POSITION TIME  TEMP    WIND        PRES    WAVE
                       AIR SEA DIR/SP/G            HT/PER
                 (UTC) (F)     (DEG/KT/KT) (MB)    (FT/S)
SABINE PASS      0600   78 87  220/  2/  6 1017.7
SEA RIM ST PARK  0600   77     120/  5/  5 1017.2
NORTH JETTY/GLS  0600   78 85  130/  6/  8   N/A
EAGLE POINT      0600   79 84   70/ 10/ 11 1016.4
MORGANS POINT    0600   76 85   40/  5/  6 1016.4
MISSION/ARANSAS  0600   81                 1015.0
PORT ARANSAS     0600   81 85   50/ 17/ 19 1014.3
MALAQUITE BEACH  0600   79 86   90/ 11/ 13 1014.1
BAFFIN BAY       0600   80 84   80/  4/  5 1013.8
PORT ISABEL      0600   85 88  160/  7/  9 1013.6
$$

GMZ080-GMZ150>470-260800-
OFFSHORE BUOY REPORTS

STATION/POSITION TIME  TEMP    WIND        PRES    WAVE
                       AIR SEA DIR/SP/G            HT/PER
                 (UTC) (F)     (DEG/KT/KT) (MB)    (FT/S)
20 E GALVESTON   0650   79 83  340/  6/  8 1016.3    2/ 5
90 E PT ARANSAS  0650   84 86  100/ 14/ 16 1014.7    3/ 5
35 NE PT MANSFLD 0650   83 86  120/ 19/ 23 1013.0    3/ 6
200 E PT ISABEL  0650   83 87   90/ 14/ 16 1013.3    3/ 4
$$




USA.gov is the U.S. government's official web portal to all federal, state and local government web resources and services.